Walnut Ridge, AR

9:58 PM CDT on March 22, 2017 (GMT -0500)
Walnut Ridge Regional

Weather History for KARG - April, 2013

Change the Weather History Date:

Sunday, April 21, 2013

  Actual Average Record
Temperature  
Mean Temperature 56 °F -  
Max Temperature 66 °F 69 °F 84 °F (2005)
Min Temperature 46 °F 50 °F 44 °F (2015)
Degree Days  
Heating Degree Days 9    
Growing Degree Days 6 (Base 50)    
Moisture  
Dew Point 42 °F    
Average Humidity 64    
Maximum Humidity 87    
Minimum Humidity 37    
Precipitation  
Precipitation 0.00 in - - ()
Sea Level Pressure  
Sea Level Pressure 30.29 in    
Wind  
Wind Speed 8 mph (ENE)    
Max Wind Speed 14 mph    
Max Gust Speed 17 mph    
Visibility 10 miles    
Events      
Averages and records for this station are not official NWS values.
T = Trace of Precipitation, MM = Missing Value Source: NWS Daily Summary

Daily Weather History Graph

Daily Weather History Graph

Search for Another Location

Airport or City:

Trip Planner

Search our weather history database for the weather conditions in past years. The results will help you decide how hot, cold, wet, or windy it might be!

Date:

Astronomy

Apr. 21, 2013 Rise Set
Actual Time 6:22 AM CDT 7:42 PM CDT
Civil Twilight 5:55 AM CDT 8:09 PM CDT
Nautical Twilight 5:23 AM CDT 8:41 PM CDT
Astronomical Twilight 4:49 AM CDT 9:15 PM CDT
Moon 3:35 PM CDT (4/21) 3:36 AM CDT (4/21)
Length of Visible Light 14h 14m
Length of Day
13h 20m
Waxing Gibbous, 80% of the Moon is Illuminated
Apr 21
Waxing Gibbous
Apr 25
Full
May 2
Last Quarter
May 9
New
May 17
First Quarter

Hourly Weather History & Observations

Time (CDT) Temp. Windchill Dew Point Humidity Pressure Visibility Wind Dir Wind Speed Gust Speed Precip Events Conditions
12:15 AM 50.0 °F - 41.0 °F 71% 30.28 in 10.0 mi East 8.1 mph - N/A   Clear
12:35 AM 50.0 °F - 42.8 °F 76% 30.28 in 8.0 mi ENE 8.1 mph - N/A   Clear
12:55 AM 48.2 °F - 42.8 °F 82% 30.28 in 7.0 mi ENE 6.9 mph - N/A   Clear
1:15 AM 48.2 °F - 42.8 °F 82% 30.29 in 6.0 mi ENE 6.9 mph - N/A   Clear
1:35 AM 48.2 °F - 42.8 °F 82% 30.29 in 10.0 mi ENE 6.9 mph - N/A   Clear
1:55 AM 46.4 °F 42.4 °F 42.8 °F 87% 30.29 in 10.0 mi ENE 8.1 mph - N/A   Clear
2:15 AM 46.4 °F 42.9 °F 42.8 °F 87% 30.29 in 10.0 mi ENE 6.9 mph - N/A   Clear
2:35 AM 46.4 °F 42.4 °F 42.8 °F 87% 30.29 in 10.0 mi ENE 8.1 mph - N/A   Clear
2:55 AM 48.2 °F - 42.8 °F 82% 30.29 in 10.0 mi ENE 6.9 mph - N/A   Clear
3:15 AM 48.2 °F - 41.0 °F 76% 30.29 in 10.0 mi ENE 6.9 mph - N/A   Clear
3:35 AM 48.2 °F - 41.0 °F 76% 30.29 in 10.0 mi ENE 6.9 mph - N/A   Clear
3:55 AM 48.2 °F - 41.0 °F 76% 30.29 in 10.0 mi ENE 8.1 mph - N/A   Clear
4:15 AM 46.4 °F 43.5 °F 42.8 °F 87% 30.30 in 10.0 mi NE 5.8 mph - N/A   Clear
4:35 AM 46.4 °F 44.3 °F 41.0 °F 81% 30.30 in 10.0 mi NNE 4.6 mph - N/A   Clear
4:55 AM 46.4 °F 43.5 °F 42.8 °F 87% 30.31 in 10.0 mi NNE 5.8 mph - N/A   Clear
5:15 AM 46.4 °F 43.5 °F 42.8 °F 87% 30.31 in 10.0 mi NE 5.8 mph - N/A   Clear
5:35 AM 46.4 °F 42.9 °F 42.8 °F 87% 30.31 in 10.0 mi NNE 6.9 mph - N/A   Clear
5:55 AM 46.4 °F 42.9 °F 42.8 °F 87% 30.32 in 10.0 mi NE 6.9 mph - N/A   Clear
6:15 AM 46.4 °F 42.4 °F 42.8 °F 87% 30.32 in 10.0 mi NE 8.1 mph - N/A   Clear
6:35 AM 46.4 °F 42.4 °F 42.8 °F 87% 30.33 in 10.0 mi NE 8.1 mph - N/A   Clear
6:55 AM 46.4 °F 42.4 °F 42.8 °F 87% 30.34 in 10.0 mi NE 8.1 mph - N/A   Clear
7:15 AM 46.4 °F 42.4 °F 42.8 °F 87% 30.35 in 10.0 mi NE 8.1 mph - N/A   Clear
7:35 AM 48.2 °F - 42.8 °F 82% 30.35 in 10.0 mi NE 10.4 mph - N/A   Clear
7:55 AM 48.2 °F - 41.0 °F 76% 30.36 in 10.0 mi NE 10.4 mph - N/A   Clear
8:15 AM 50.0 °F - 41.0 °F 71% 30.36 in 10.0 mi ENE 10.4 mph - N/A   Clear
8:35 AM 51.8 °F - 39.2 °F 62% 30.37 in 10.0 mi East 8.1 mph - N/A   Clear
8:55 AM 51.8 °F - 41.0 °F 67% 30.38 in 10.0 mi East 6.9 mph - N/A   Clear
9:15 AM 53.6 °F - 39.2 °F 58% 30.38 in 10.0 mi East 8.1 mph - N/A   Clear
9:35 AM 53.6 °F - 39.2 °F 58% 30.38 in 10.0 mi East 8.1 mph - N/A   Clear
9:55 AM 55.4 °F - 41.0 °F 58% 30.38 in 10.0 mi East 11.5 mph - N/A   Clear
10:15 AM 57.2 °F - 41.0 °F 55% 30.38 in 10.0 mi East 9.2 mph - N/A   Clear
10:35 AM 57.2 °F - 41.0 °F 55% 30.38 in 10.0 mi East 10.4 mph - N/A   Clear
10:55 AM 59.0 °F - 41.0 °F 51% 30.37 in 10.0 mi East 8.1 mph - N/A   Clear
11:15 AM 59.0 °F - 42.8 °F 55% 30.37 in 10.0 mi ENE 8.1 mph - N/A   Clear
11:35 AM 60.8 °F - 42.8 °F 52% 30.36 in 10.0 mi East 10.4 mph 16.1 mph N/A   Clear
11:55 AM 60.8 °F - 42.8 °F 52% 30.35 in 10.0 mi East 9.2 mph - N/A   Clear
12:15 PM 62.6 °F - 41.0 °F 45% 30.35 in 10.0 mi ENE 9.2 mph - N/A   Clear
12:35 PM 62.6 °F - 39.2 °F 42% 30.34 in 10.0 mi ESE 6.9 mph - N/A   Clear
12:55 PM 62.6 °F - 42.8 °F 48% 30.33 in 10.0 mi East 9.2 mph - N/A   Clear
1:15 PM 64.4 °F - 41.0 °F 42% 30.32 in 10.0 mi East 10.4 mph - N/A   Clear
1:35 PM 64.4 °F - 41.0 °F 42% 30.31 in 10.0 mi East 11.5 mph - N/A   Clear
1:55 PM 64.4 °F - 42.8 °F 45% 30.29 in 10.0 mi ENE 11.5 mph - N/A   Clear
2:15 PM 64.4 °F - 41.0 °F 42% 30.29 in 10.0 mi East 13.8 mph - N/A   Clear
2:35 PM 64.4 °F - 39.2 °F 40% 30.28 in 10.0 mi East 12.7 mph - N/A   Clear
2:55 PM 64.4 °F - 39.2 °F 40% 30.27 in 10.0 mi ENE 10.4 mph - N/A   Clear
3:15 PM 64.4 °F - 39.2 °F 40% 30.26 in 10.0 mi ENE 11.5 mph - N/A   Clear
3:35 PM 66.2 °F - 41.0 °F 40% 30.25 in 10.0 mi ENE 12.7 mph 17.3 mph N/A   Clear
3:55 PM 66.2 °F - 42.8 °F 43% 30.25 in 10.0 mi ENE 11.5 mph 17.3 mph N/A   Clear
4:15 PM 64.4 °F - 39.2 °F 40% 30.25 in 10.0 mi East 10.4 mph 17.3 mph N/A   Clear
4:35 PM 66.2 °F - 39.2 °F 37% 30.25 in 10.0 mi East 10.4 mph - N/A   Clear
4:55 PM 64.4 °F - 39.2 °F 40% 30.24 in 10.0 mi East 12.7 mph - N/A   Clear
5:15 PM 62.6 °F - 39.2 °F 42% 30.24 in 10.0 mi East 9.2 mph - N/A   Clear
5:35 PM 64.4 °F - 41.0 °F 42% 30.23 in 10.0 mi East 13.8 mph - N/A   Clear
5:55 PM 62.6 °F - 41.0 °F 45% 30.23 in 10.0 mi East 11.5 mph - N/A   Clear
6:15 PM 62.6 °F - 42.8 °F 48% 30.22 in 10.0 mi East 10.4 mph - N/A   Clear
6:35 PM 60.8 °F - 42.8 °F 52% 30.23 in 10.0 mi East 9.2 mph - N/A   Clear
6:55 PM 60.8 °F - 42.8 °F 52% 30.23 in 10.0 mi ENE 8.1 mph - N/A   Clear
7:15 PM 60.8 °F - 44.6 °F 55% 30.23 in 10.0 mi ENE 9.2 mph - N/A   Clear
7:35 PM 57.2 °F - 44.6 °F 63% 30.23 in 10.0 mi ENE 8.1 mph - N/A   Clear
7:55 PM 55.4 °F - 46.4 °F 72% 30.23 in 10.0 mi NE 5.8 mph - N/A   Clear
8:15 PM 55.4 °F - 44.6 °F 67% 30.24 in 10.0 mi NE 5.8 mph - N/A   Clear
8:35 PM 55.4 °F - 44.6 °F 67% 30.25 in 10.0 mi NE 4.6 mph - N/A   Clear
8:55 PM 55.4 °F - 44.6 °F 67% 30.25 in 10.0 mi NE 6.9 mph - N/A   Clear
9:15 PM 53.6 °F - 44.6 °F 72% 30.25 in 10.0 mi NE 5.8 mph - N/A   Clear
9:35 PM 53.6 °F - 44.6 °F 72% 30.25 in 10.0 mi NNE 6.9 mph - N/A   Clear
9:55 PM 53.6 °F - 44.6 °F 72% 30.25 in 10.0 mi NNE 6.9 mph - N/A   Clear
10:15 PM 53.6 °F - 44.6 °F 72% 30.25 in 10.0 mi North 6.9 mph - N/A   Clear
10:35 PM 53.6 °F - 42.8 °F 67% 30.25 in 10.0 mi North 6.9 mph - N/A   Clear
10:55 PM 51.8 °F - 42.8 °F 71% 30.24 in 10.0 mi North 6.9 mph - N/A   Clear
11:15 PM 51.8 °F - 44.6 °F 76% 30.24 in 10.0 mi NNE 6.9 mph - N/A   Clear
11:35 PM 51.8 °F - 44.6 °F 76% 30.24 in 10.0 mi NNE 6.9 mph - N/A   Clear
11:55 PM 50.0 °F - 44.6 °F 82% 30.24 in 10.0 mi NNE 8.1 mph - N/A   Clear